Hourly Weather Roundup
Issued by NWS Central Illinois

Home | Current Version | Previous Version | Text Only | Print | Product List | Glossary On
Versions: 1 2 3 4 5 6 7 8 9 10 11 12 13 14 15 16 17 18 19 20 21 22 23 24 25 26 27 28 29 30 31 32 33 34 35 36 37 38 39 40 41 42 43 44 45 46 47 48 49 50
000
NZUS43 KILX 140310
HWRILX

AREA WEATHER ROUNDUP
NATIONAL WEATHER SERVICE, LINCOLN IL
900 PM CST SAT FEB 13 2016


CITY           SKY/WX    TMP DP  RH WIND       PRES   REMARKS
BLOOMINGTON    MOCLDY    16   4  59 SE6       30.46F WCI   8
CHAMPAIGN      CLOUDY    17   4  56 E9        30.47F WCI   6
DANVILLE       CLOUDY    14   6  70 CALM      30.46F
DECATUR        MOCLDY    19   2  47 SE10      30.47F WCI   7
EFFINGHAM      CLOUDY    20   7  55 E6        30.50F WCI  13
FLORA          CLOUDY    22   4  46 E5        30.49F WCI  16
GALESBURG      CLOUDY    17   0  47 SE5       30.44S WCI  10
JACKSONVILLE   CLOUDY    22   9  57 SE9       30.45F WCI  11
LACON          CLOUDY    17  -3  41 E5        30.46F WCI  10
LAWRENCEVILLE  PTCLDY    19   4  51 NE7       30.51F WCI  10
LITCHFIELD     CLOUDY    19   4  50 E8        30.44F WCI   9
$$


CITY           SKY/WX    TMP DP  RH WIND       PRES   REMARKS
LINCOLN        CLOUDY    19   4  50 SE5       30.47F WCI  13
MACOMB         CLOUDY    19   4  52 SE12      30.47F WCI   7
MATTOON        PTCLDY    17   3  54 E6        30.47F WCI   9
MT CARMEL AP   CLOUDY    19   3  49 CALM      30.50F
OLNEY-NOBLE AP CLOUDY    19   3  49 E7        30.50F WCI  10
PARIS          CLOUDY    17   6  61 E5        30.50F WCI  10
PEORIA         MOCLDY    18  -1  43 SE6       30.47F WCI  10
PONTIAC        PTCLDY    16  10  77 E5        30.48F WCI   9
RANTOUL        MOCLDY    19   5  56 E5        30.48F WCI  12
ROBINSON       PTCLDY    18   4  54 NE6       30.52F WCI  10
SPRINGFIELD    CLOUDY    20   5  52 SE7       30.47F WCI  11
TAYLORVILLE    CLOUDY    19   5  53 SE7       30.47F WCI  10
$$

...REGIONAL REPORTS...


CITY           SKY/WX    TMP DP  RH WIND       PRES   REMARKS
CHICAGO O`HARE CLOUDY    12  -4  48 CALM      30.48S
KANKAKEE       CLOUDY    13   1  57 CALM      30.50S
MOLINE         CLOUDY    17  -2  43 E9        30.45F WCI   6
MOUNT STERLING CLOUDY    18   7  61 SE8       30.43S WCI   8
MOUNT VERNON   CLOUDY    21   3  45 E6        30.47F WCI  14
PITTSFIELD     CLOUDY    19   8  60 E10       30.45S WCI   8
QUINCY         CLOUDY    18   6  59 E13       30.42F WCI   5
ROCKFORD       CLOUDY     9   0  67 SE3       30.48F
$$


CITY           SKY/WX    TMP DP  RH WIND       PRES   REMARKS
BURLINGTON     CLOUDY    19   2  47 SE9       30.43F WCI   8
CEDAR RAPIDS   CLOUDY    15   1  53 SE10      30.39F WCI   2
DES MOINES     LGT SNOW  14   8  77 SE12      30.35F WCI   0
KIRKSVILLE     CLOUDY    17   6  62 E10       30.36F WCI   5
OTTUMWA        LGT SNOW  15   9  76 SE10      30.39F WCI   2
ST LOUIS       CLOUDY    23   5  46 E13       30.43F WCI  11
$$


CITY           SKY/WX    TMP DP  RH WIND       PRES   REMARKS
TERRE HAUTE    PTCLDY    17   7  64 NE3       30.50F
EVANSVILLE     CLOUDY    24   2  38 NE7       30.49F WCI  16
INDIANAPOLIS   CLOUDY    14   0  53 NW3       30.47F
LAFAYETTE      CLOUDY    11   2  67 CALM      30.50F
MADISON        CLOUDY     4  -7  60 CALM      30.45F
MILWAUKEE      CLOUDY     8  -6  52 NW3       30.48F
$$





USA.gov is the U.S. government's official web portal to all federal, state and local government web resources and services.